Change the Weather History Date:

Friday, September 20, 2013

  Actual Average Record
Temperature  
Mean Temperature 58 °F -  
Max Temperature 73 °F 70 °F 80 °F (2003)
Min Temperature 42 °F 50 °F 42 °F (2008)
Degree Days  
Heating Degree Days 8    
Growing Degree Days 8 (Base 50)    
Moisture  
Dew Point 49 °F    
Average Humidity 87    
Maximum Humidity 100    
Minimum Humidity 50    
Precipitation  
Precipitation 0.00 in - - ()
Sea Level Pressure  
Sea Level Pressure 30.08 in    
Wind  
Wind Speed 1 mph (SSW)    
Max Wind Speed 9 mph    
Max Gust Speed -    
Visibility 4 miles    
Events Fog    
Averages and records for this station are not official NWS values.
T = Trace of Precipitation, MM = Missing Value Source: NWS Daily Summary

Daily Weather History Graph

Daily Weather History Graph

Search for Another Location

Airport or City:

Trip Planner

Search our weather history database for the weather conditions in past years. The results will help you decide how hot, cold, wet, or windy it might be!

Date:

Astronomy

Sep. 20, 2013 Rise Set
Actual Time 6:36 AM EDT 6:50 PM EDT
Civil Twilight 6:08 AM EDT 7:18 PM EDT
Nautical Twilight 5:36 AM EDT 7:50 PM EDT
Astronomical Twilight 5:03 AM EDT 8:22 PM EDT
Moon 7:21 PM EDT (9/20) 7:48 AM EDT (9/20)
Length of Visible Light 13h 09m
Length of Day
12h 14m
Full, 98% of the Moon is Illuminated
Sep 20
Full
Sep 26
Last Quarter
Oct 4
New
Oct 11
First Quarter
Oct 18
Full

Hourly Weather History & Observations

Time (EDT) Temp. Dew Point Humidity Pressure Visibility Wind Dir Wind Speed Gust Speed Precip Events Conditions
12:09 AM 46.4 °F 42.8 °F 87% 30.10 in 10.0 mi Calm Calm - N/A   Scattered Clouds
12:17 AM 46.4 °F 42.8 °F 87% 30.10 in 10.0 mi Calm Calm - N/A   Mostly Cloudy
12:34 AM 44.6 °F 42.8 °F 93% 30.10 in 0.8 mi Calm Calm - N/A   Mist
12:42 AM 44.6 °F 42.8 °F 93% 30.10 in 0.2 mi Calm Calm - N/A Fog Fog
12:53 AM 45.0 °F 43.0 °F 93% 30.10 in 0.2 mi Calm Calm - N/A Fog Fog
1:30 AM 44.6 °F 42.8 °F 93% 30.10 in 0.8 mi Calm Calm - N/A   Mist
1:44 AM 44.6 °F 42.8 °F 93% 30.10 in 0.2 mi Calm Calm - N/A Fog Fog
1:53 AM 44.1 °F 42.1 °F 93% 30.10 in 0.2 mi Calm Calm - N/A Fog Fog
2:38 AM 44.6 °F 42.8 °F 93% 30.09 in 0.2 mi Calm Calm - N/A Fog Fog
2:53 AM 45.0 °F 44.1 °F 97% 30.09 in 0.2 mi Calm Calm - N/A Fog Fog
3:35 AM 42.8 °F 42.8 °F 100% 30.10 in 0.5 mi Calm Calm - N/A Fog Fog
3:53 AM 44.1 °F 43.0 °F 96% 30.10 in 0.2 mi Calm Calm - N/A Fog Fog
4:53 AM 43.0 °F 43.0 °F 100% 30.09 in 0.2 mi Calm Calm - N/A Fog Fog
5:11 AM 42.8 °F 41.0 °F 93% 30.10 in 0.5 mi Calm Calm - N/A Fog Fog
5:29 AM 42.8 °F 39.2 °F 87% 30.10 in 0.2 mi Calm Calm - N/A Fog Fog
5:53 AM 43.0 °F 42.1 °F 97% 30.10 in 0.2 mi Calm Calm - N/A Fog Fog
6:53 AM 43.0 °F 43.0 °F 100% 30.11 in 0.2 mi Calm Calm - N/A Fog Fog
7:11 AM 44.6 °F 42.8 °F 93% 30.11 in 0.2 mi Calm Calm - N/A Fog Fog
7:40 AM 46.4 °F 46.4 °F 100% 30.11 in 0.2 mi Calm Calm - N/A Fog Fog
7:53 AM 50.0 °F 50.0 °F 100% 30.11 in 0.2 mi Calm Calm - N/A Fog Fog
8:01 AM 51.8 °F 51.8 °F 100% 30.11 in 0.8 mi Calm Calm - N/A   Mist
8:03 AM 53.6 °F 53.6 °F 100% 30.11 in 1.2 mi Calm Calm - N/A   Scattered Clouds
8:06 AM 53.6 °F 53.6 °F 100% 30.11 in 4.0 mi Calm Calm - N/A   Scattered Clouds
8:53 AM 62.1 °F 57.0 °F 84% 30.11 in 10.0 mi West 3.5 mph - N/A   Clear
9:53 AM 69.1 °F 57.9 °F 68% 30.12 in 10.0 mi West 4.6 mph - N/A   Clear
10:53 AM 73.0 °F 57.9 °F 59% 30.11 in 10.0 mi Variable 5.8 mph - N/A   Clear
11:53 AM 73.0 °F 57.9 °F 59% 30.10 in 10.0 mi Variable 4.6 mph - N/A   Clear
12:53 PM 73.9 °F 55.0 °F 52% 30.10 in 10.0 mi SSW 9.2 mph - N/A   Clear
1:53 PM 73.9 °F 54.0 °F 50% 30.07 in 10.0 mi SSW 8.1 mph - N/A   Clear
2:53 PM 73.0 °F 54.0 °F 51% 30.06 in 10.0 mi South 9.2 mph - N/A   Clear
3:53 PM 71.1 °F 55.0 °F 57% 30.06 in 10.0 mi South 9.2 mph - N/A   Clear
4:53 PM 69.1 °F 57.0 °F 65% 30.06 in 10.0 mi South 6.9 mph - N/A   Clear
5:53 PM 66.9 °F 57.9 °F 73% 30.06 in 10.0 mi SSW 9.2 mph - N/A   Clear
6:53 PM 64.0 °F 57.9 °F 80% 30.06 in 10.0 mi Calm Calm - N/A   Clear
7:53 PM 57.0 °F 53.1 °F 87% 30.06 in 10.0 mi South 3.5 mph - N/A   Clear
8:29 PM 55.4 °F 53.6 °F 94% 30.06 in 1.5 mi Calm Calm - N/A   Clear
8:41 PM 53.6 °F 51.8 °F 94% 30.06 in 4.0 mi Calm Calm - N/A   Clear
8:53 PM 52.0 °F 50.0 °F 93% 30.06 in 4.0 mi SSE 3.5 mph - N/A   Clear
9:53 PM 54.0 °F 51.1 °F 90% 30.05 in 7.0 mi Calm Calm - N/A   Clear
10:02 PM 51.8 °F 50.0 °F 94% 30.04 in 1.5 mi SSE 3.5 mph - N/A   Clear
10:13 PM 53.6 °F 51.8 °F 94% 30.04 in 3.0 mi Calm Calm - N/A   Clear
10:21 PM 53.6 °F 51.8 °F 94% 30.04 in 1.8 mi Calm Calm - N/A   Clear
10:27 PM 51.8 °F 51.8 °F 100% 30.04 in 0.2 mi Calm Calm - N/A Fog Fog
10:37 PM 48.2 °F 48.2 °F 100% 30.04 in 1.2 mi Calm Calm - N/A   Clear
10:42 PM 48.2 °F 46.4 °F 93% 30.04 in 3.0 mi Calm Calm - N/A   Clear
10:53 PM 50.0 °F 48.0 °F 93% 30.04 in 10.0 mi Calm Calm - N/A   Clear
11:39 PM 48.2 °F 46.4 °F 93% 30.05 in 3.0 mi Calm Calm - N/A   Partly Cloudy
11:53 PM 48.0 °F 46.0 °F 93% 30.05 in 9.0 mi Calm Calm - N/A   Partly Cloudy